Weather History for Holland, MI

Change the Weather History Date:

Monday, July 8, 2013

  Actual Average Record
Temperature  
Mean Temperature 76 °F 72 °F  
Max Temperature 81 °F 82 °F 97 °F (1988)
Min Temperature 71 °F 62 °F 47 °F (1954)
Degree Days  
Heating Degree Days 0 0  
Month to date heating degree days 0 0  
Since 1 June heating degree days 34 48  
Since 1 July heating degree days 0 0  
Cooling Degree Days 11 8  
Month to date cooling degree days 65 58  
Year to date cooling degree days 319 246  
Since 1 June cooling degree days 229 204  
Growing Degree Days 26 (Base 50)    
Moisture  
Dew Point 70 °F    
Average Humidity 80    
Maximum Humidity 93    
Minimum Humidity 67    
Precipitation  
Precipitation 0.03 in 0.08 in 1.15 in (1997)
Month to date precipitation 0.58 0.79  
Year to date precipitation 23.74 17.60  
Sea Level Pressure  
Sea Level Pressure 29.98 in    
Wind  
Wind Speed 9 mph (SW)    
Max Wind Speed 22 mph    
Max Gust Speed 29 mph    
Visibility 9 miles    
Events Rain    
T = Trace of Precipitation, MM = Missing Value Source: NWS Daily Summary

Daily Weather History Graph

Daily Weather History Graph

Search for Another Location

Airport:

Trip Planner

Search our weather history database for the weather conditions in past years. The results will help you decide how hot, cold, wet, or windy it might be!

Date:

Astronomy

Jul. 08, 2013 Rise Set
Actual Time 6:14 AM EDT 9:24 PM EDT
Civil Twilight 5:39 AM EDT 9:58 PM EDT
Nautical Twilight 4:55 AM EDT 10:42 PM EDT
Astronomical Twilight 4:02 AM EDT 11:35 PM EDT
Moon 6:45 AM EDT (7/8) 9:23 PM EDT (7/8)
Length of Visible Light 16h 18m
Length of Day
15h 09m
New Moon, 0% of the Moon is Illuminated
Jul 8
New Moon
Jul 15
First Quarter
Jul 22
Full
Jul 29
Last Quarter
Aug 6
New

Hourly Weather History & Observations

Time (EDT) Temp. Heat Index Dew Point Humidity Pressure Visibility Wind Dir Wind Speed Gust Speed Precip Events Conditions
12:53 AM 75.9 °F - 70.0 °F 82% 29.99 in 9.0 mi South 5.8 mph - N/A   Partly Cloudy
1:53 AM 78.1 °F - 70.0 °F 76% 29.98 in 10.0 mi SSW 6.9 mph - N/A   Scattered Clouds
2:53 AM 80.1 °F 83.2 °F 70.0 °F 71% 29.98 in 10.0 mi SSW 10.4 mph - N/A   Mostly Cloudy
3:53 AM 79.0 °F - 70.0 °F 74% 29.98 in 10.0 mi SW 10.4 mph - N/A   Scattered Clouds
4:53 AM 78.1 °F - 70.0 °F 76% 29.97 in 10.0 mi SSW 8.1 mph - N/A   Clear
5:53 AM 78.1 °F - 70.0 °F 76% 29.97 in 10.0 mi SSW 4.6 mph - N/A   Overcast
6:53 AM 77.0 °F - 70.0 °F 79% 29.98 in 10.0 mi Variable 4.6 mph - N/A   Mostly Cloudy
7:53 AM 79.0 °F - 70.0 °F 74% 29.97 in 10.0 mi South 5.8 mph - N/A   Partly Cloudy
8:53 AM 79.0 °F - 70.0 °F 74% 29.99 in 10.0 mi SSW 10.4 mph - N/A   Mostly Cloudy
9:53 AM 80.1 °F 83.2 °F 70.0 °F 71% 30.00 in 10.0 mi WSW 10.4 mph - N/A   Clear
10:53 AM 75.0 °F - 70.0 °F 84% 30.03 in 8.0 mi WSW 15.0 mph 20.7 mph 0.00 in Rain Light Rain
11:53 AM 75.0 °F - 70.0 °F 84% 30.02 in 6.0 mi WSW 9.2 mph - 0.03 in Rain Light Rain
12:17 PM 75.2 °F - 71.6 °F 89% 30.03 in 7.0 mi SW 6.9 mph - 0.00 in   Mostly Cloudy
12:38 PM 78.8 °F - 71.6 °F 78% 30.02 in 8.0 mi SSW 9.2 mph - 0.00 in   Mostly Cloudy
12:53 PM 78.1 °F - 72.0 °F 81% 29.99 in 8.0 mi South 11.5 mph - 0.00 in   Mostly Cloudy
1:09 PM 78.8 °F - 71.6 °F 78% 29.99 in 10.0 mi South 13.8 mph 20.7 mph N/A   Scattered Clouds
1:53 PM 78.1 °F - 69.1 °F 74% 29.99 in 10.0 mi SSW 16.1 mph 24.2 mph N/A   Overcast
2:53 PM 77.0 °F - 68.0 °F 74% 29.98 in 10.0 mi SSW 11.5 mph 28.8 mph N/A   Overcast
3:53 PM 79.0 °F - 66.9 °F 66% 29.97 in 10.0 mi SSW 20.7 mph 27.6 mph N/A   Overcast
4:49 PM 78.8 °F - 68.0 °F 69% 29.98 in 10.0 mi SW 16.1 mph 21.9 mph N/A   Mostly Cloudy
4:53 PM 79.0 °F - 68.0 °F 69% 29.96 in 10.0 mi SW 17.3 mph 25.3 mph N/A   Mostly Cloudy
5:53 PM 79.0 °F - 68.0 °F 69% 29.96 in 10.0 mi SW 11.5 mph 24.2 mph N/A   Mostly Cloudy
6:11 PM 80.6 °F 83.2 °F 68.0 °F 65% 29.96 in 10.0 mi SW 12.7 mph - N/A   Partly Cloudy
6:53 PM 80.1 °F 82.7 °F 68.0 °F 67% 29.95 in 10.0 mi SW 12.7 mph - N/A   Mostly Cloudy
7:53 PM 81.0 °F 84.1 °F 69.1 °F 67% 29.96 in 10.0 mi SW 5.8 mph - N/A   Mostly Cloudy
8:53 PM 79.0 °F - 70.0 °F 74% 29.96 in 10.0 mi Calm Calm - N/A   Overcast
9:53 PM 77.0 °F - 70.0 °F 79% 29.96 in 10.0 mi SSW 4.6 mph - N/A   Mostly Cloudy
10:53 PM 73.9 °F - 69.1 °F 85% 29.98 in 6.0 mi Calm Calm - N/A   Haze
11:34 PM 73.4 °F - 69.8 °F 88% 29.99 in 2.5 mi Calm Calm - N/A   Clear
11:51 PM 71.6 °F - 69.8 °F 94% 29.99 in 3.0 mi Calm Calm - N/A   Clear
11:53 PM 72.0 °F - 69.1 °F 91% 29.98 in 4.0 mi Calm Calm - N/A   Clear